This demonstration page uses our WeatherBlox Daily Observations layout. Learn more.

Hourly Observations for August 25, 2017

Temp ( °F °C ) Dew Point ( °F °C ) Humidity (%) Winds ( mph kmh ) Pressure ( in mb ) Visibility ( mi km ) Precip ( " mm )
12:15 am 00:15 Mostly Cloudy with Nearby Thunderstorms 64 18 64 18 100 100 Calm 30.03 1017 10 16.09344 0 0
12:35 am 00:35 Cloudy 64 18 64 18 100 100 NW 6 9 30.03 1017 10 16.09344 0 0
12:55 am 00:55 Cloudy with Heavy Rain 64 18 64 18 100 100 W 6 9 30.06 1018 3 4.828032 0.15 3.81
1:15 am 01:15 Cloudy with Rain 64 18 64 18 100 100 Calm 30.06 1018 10 16.09344 0.02 0.508
1:35 am 01:35 Cloudy 64 18 64 18 100 100 NE 3 6 30.06 1018 10 16.09344 0.03 0.762
1:55 am 01:55 Cloudy 64 18 64 18 100 100 Calm 30.06 1018 10 16.09344 0.03 0.762
2:15 am 02:15 Cloudy 64 18 64 18 100 100 Calm 30.06 1018 10 16.09344 0 0
2:35 am 02:35 Mostly Cloudy 64 18 64 18 100 100 N 3 6 30.06 1018 10 16.09344 0 0
2:55 am 02:55 Mostly Cloudy 64 18 64 18 100 100 NNW 3 6 30.06 1018 10 16.09344 0 0
3:15 am 03:15 Mostly Cloudy 64 18 64 18 100 100 Calm 30.06 1018 10 16.09344 0 0
3:35 am 03:35 Partly Cloudy 64 18 64 18 100 100 NNE 3 6 30.06 1018 7 11.265408 0 0
3:55 am 03:55 Partly Cloudy 64 18 64 18 100 100 Calm 30.06 1018 10 16.09344 0 0
4:15 am 04:15 Clear 63 17 63 17 100 100 Calm 30.06 1018 10 16.09344 0 0
4:35 am 04:35 Mostly Cloudy 63 17 63 17 100 100 Calm 30.06 1018 7 11.265408 0 0
4:55 am 04:55 Partly Cloudy 63 17 63 17 100 100 N 5 7 30.09 1019 10 16.09344 0 0
5:15 am 05:15 Clear 63 17 63 17 100 100 N 5 7 30.09 1019 10 16.09344 0 0
5:35 am 05:35 Clear 61 16 61 16 100 100 N 3 6 30.09 1019 10 16.09344 0 0
5:55 am 05:55 Mostly Cloudy 63 17 63 17 100 100 N 5 7 30.09 1019 10 16.09344 0.01 0.254
6:15 am 06:15 Partly Cloudy 61 16 61 16 100 100 N 5 7 30.12 1020 10 16.09344 0 0
6:35 am 06:35 Partly Cloudy 61 16 61 16 100 100 N 5 7 30.12 1020 10 16.09344 0 0
6:55 am 06:55 Mostly Cloudy 61 16 61 16 100 100 Calm 30.12 1020 10 16.09344 0 0
7:15 am 07:15 Mostly Cloudy 61 16 61 16 100 100 Calm 30.12 1020 10 16.09344 0 0
7:35 am 07:35 Partly Cloudy 63 17 63 17 100 100 NNW 3 6 30.12 1020 10 16.09344 0 0
7:55 am 07:55 Sunny 63 17 63 17 100 100 Calm 30.15 1021 10 16.09344 0 0
8:15 am 08:15 Sunny 64 18 63 17 94 94 Calm 30.15 1021 10 16.09344 0 0
8:35 am 08:35 Sunny 64 18 63 17 94 94 undefined N/A 30.15 1021 10 16.09344 0 0
8:55 am 08:55 Sunny 66 19 63 17 88 88 N 9 15 30.15 1021 10 16.09344 0 0
9:15 am 09:15 Sunny 68 20 63 17 83 83 NNW 12 19 30.15 1021 10 16.09344 0 0
9:35 am 09:35 Sunny 68 20 63 17 83 83 N 7 11 30.15 1021 10 16.09344 0 0
9:55 am 09:55 Partly Cloudy 70 21 63 17 78 78 NNW 9 15 30.15 1021 10 16.09344 0 0
10:15 am 10:15 Mostly Cloudy 70 21 63 17 78 78 N 8 13 30.18 1022 10 16.09344 0 0
10:35 am 10:35 Mostly Cloudy 70 21 63 17 78 78 N 7 11 30.18 1022 10 16.09344 0 0
10:55 am 10:55 Mostly Cloudy 72 22 63 17 73 73 N 7 11 30.18 1022 10 16.09344 0 0
11:15 am 11:15 Mostly Cloudy 72 22 63 17 73 73 N 9 15 30.18 1022 10 16.09344 0 0
11:35 am 11:35 Mostly Cloudy 72 22 61 16 69 69 NNE 5 7 30.18 1022 10 16.09344 0 0
11:55 am 11:55 Partly Cloudy 72 22 63 17 73 73 NNE 6 9 30.18 1022 10 16.09344 0 0
12:15 pm 12:15 Mostly Cloudy 72 22 61 16 69 69 N 7 11 30.18 1022 10 16.09344 0 0
12:35 pm 12:35 Mostly Cloudy 73 23 61 16 65 65 N 6 9 30.15 1021 10 16.09344 0 0
12:55 pm 12:55 Mostly Cloudy 73 23 61 16 65 65 N 8 13 30.18 1022 10 16.09344 0 0
1:15 pm 13:15 Partly Cloudy 75 24 61 16 61 61 NW 6 9 30.15 1021 10 16.09344 0 0
1:35 pm 13:35 Mostly Cloudy 73 23 61 16 65 65 Calm 30.18 1022 10 16.09344 0 0
1:55 pm 13:55 Mostly Cloudy 77 25 61 16 57 57 WNW 3 6 30.15 1021 10 16.09344 0 0
2:15 pm 14:15 Partly Cloudy 75 24 61 16 61 61 NNW 8 13 30.15 1021 10 16.09344 0 0
2:35 pm 14:35 Partly Cloudy 77 25 61 16 57 57 NNW 12 19 30.15 1021 10 16.09344 0 0
2:55 pm 14:55 Partly Cloudy 77 25 61 16 57 57 NNW 6 9 30.15 1021 10 16.09344 0 0
3:15 pm 15:15 Partly Cloudy 75 24 61 16 61 61 Calm 30.15 1021 10 16.09344 0 0
3:35 pm 15:35 Partly Cloudy 77 25 59 15 54 54 N 3 6 30.15 1021 10 16.09344 0 0
3:55 pm 15:55 Partly Cloudy 79 26 61 16 54 54 W 6 9 30.15 1021 10 16.09344 0 0
4:15 pm 16:15 Partly Cloudy 79 26 61 16 54 54 NW 7 11 30.15 1021 10 16.09344 0 0
4:35 pm 16:35 Partly Cloudy 77 25 61 16 57 57 N 6 9 30.15 1021 10 16.09344 0 0
4:55 pm 16:55 Sunny 77 25 61 16 57 57 NW 5 7 30.15 1021 10 16.09344 0 0
5:15 pm 17:15 Sunny 77 25 61 16 57 57 NW 6 9 30.15 1021 10 16.09344 0 0
5:35 pm 17:35 Sunny 77 25 61 16 57 57 NW 7 11 30.15 1021 10 16.09344 0 0
5:55 pm 17:55 Sunny 77 25 61 16 57 57 NNW 5 7 30.15 1021 10 16.09344 0 0
6:15 pm 18:15 Sunny 77 25 59 15 54 54 NNW 5 7 30.15 1021 10 16.09344 0 0
6:35 pm 18:35 Sunny 77 25 59 15 54 54 NNW 5 7 30.18 1022 10 16.09344 0 0
6:55 pm 18:55 Sunny 75 24 61 16 61 61 NNW 8 13 30.18 1022 10 16.09344 0 0
7:15 pm 19:15 Partly Cloudy 73 23 61 16 65 65 N 7 11 30.18 1022 10 16.09344 0 0
7:35 pm 19:35 Partly Cloudy 73 23 61 16 65 65 NNE 5 7 30.18 1022 10 16.09344 0 0
7:55 pm 19:55 Mostly Cloudy 72 22 61 16 69 69 NNE 3 6 30.18 1022 10 16.09344 0 0
8:15 pm 20:15 Cloudy 72 22 61 16 69 69 NNE 3 6 30.21 1023 10 16.09344 0 0
8:35 pm 20:35 Cloudy 72 22 63 17 73 73 Calm 30.21 1023 10 16.09344 0 0
8:55 pm 20:55 Cloudy 72 22 61 16 69 69 NNE 3 6 30.21 1023 10 16.09344 0 0
9:15 pm 21:15 Cloudy 72 22 61 16 69 69 N 5 7 30.21 1023 10 16.09344 0 0
9:35 pm 21:35 Cloudy 72 22 61 16 69 69 N 5 7 30.21 1023 10 16.09344 0 0
9:55 pm 21:55 Cloudy 70 21 61 16 73 73 Calm 30.21 1023 10 16.09344 0 0
10:15 pm 22:15 Cloudy 70 21 61 16 73 73 NE 5 7 30.21 1023 10 16.09344 0 0
10:35 pm 22:35 Cloudy 70 21 61 16 73 73 NNE 3 6 30.21 1023 10 16.09344 0 0
10:55 pm 22:55 Cloudy 70 21 61 16 73 73 NNE 3 6 30.21 1023 10 16.09344 0 0
11:15 pm 23:15 Cloudy 70 21 61 16 73 73 N 3 6 30.24 1024 10 16.09344 0 0
11:35 pm 23:35 Cloudy 68 20 61 16 78 78 N 3 6 30.24 1024 10 16.09344 0 0
11:55 pm 23:55 Cloudy 68 20 61 16 78 78 NNE 3 6 30.24 1024 10 16.09344 0 0

Powered by AerisWeather